sat.trackr.live / text

‹ back to catalog

WT 1B

NORAD 44316 · 2019-032G

PAYLOAD ACTIVE UNKNOWN

§ Identity

Operator
Country
PRC
Launch date
2019-06-05
Launch site
YSLA
Launch vehicle
Mass (kg)
RCS (m²)

External: N2YO · Heavens-Above · Gunter

§ Orbital elements

Epoch: 2026-09-20T04:31:10.643232Z

Period
94.19 min
Inclination
44.9719°
Eccentricity
0.0009212
Mean motion
15.28854242 rev/d
Perigee alt
472.9 km
Apogee alt
485.6 km
Semi-major
6,857.4 km
B*
2.3852e-4
RAAN
261.7027°
Arg perigee
73.3220°
Mean anomaly
286.8674°
Rev number
40,161

§ Raw data

WT 1B1 44316U 19032G   26263.18831763  .00006525  00000+0  23852-3 0  99992 44316  44.9719 261.7027 0009212  73.3220 286.8674 15.28854242401614

JSON: /api/v1/satellites/44316 · /tle

For live sub-satellite position, see the globe view (requires WebGL).

§ Visibility from observer

Set your observer location to see the next 7 days of passes ≥ 10°. The values pass through the URL so the page stays shareable.

No JS? Fill the form by hand. The geolocation button needs JavaScript.

§ Radio — SatNOGS DB

ModeDescriptionDownlinkUplink
FM Downlink 401.305 MHz

1 transmitter · refreshed weekly from db.satnogs.org